Погода в Тамки

Вьетнам     15°33′01″N   108°28′47″E
темп.,
°C
ветер,
м/с
пор.,
м/с
влажн.,
%
обл.,
%
осадки,
мм/ч
давл.,
гПа
погр.,
м
29 января, сб
сб2901:00+19зюз22942 0.0 101339
04:00+19юз22945 0.0 101141
07:00+20юз22884 0.0 101259
10:00+26ссв11630 0.0 1013733
13:00+26св32665 0.0 1010844
16:00+25всв34725 0.0 1008496
19:00+22вюв119198 0.0 101016
22:00+21ююз1192100 0.0 101224
30 января, вс
вс3001:00+20юз119255 0.0 101124
04:00+20юз11935 0.0 101025
07:00+21юз2288100 0.0 101258
10:00+27вюв236382 0.0 10131087
13:00+27в446449 0.0 1010890
16:00+26в4673100 0.0 1009720
19:00+23юв2590100 0.0 1012146
22:00+22ююв129185 0.1 101346
31 января, пн
пн3101:00+21ю119315 0.2 101232
04:00+21ююз119453 0.0 101130
07:00+22ююз12893 0.0 101264
10:00+27в236728 0.0 1013971
13:00+27всв447138 0.4 1011832
16:00+23ссв569088 2.3 1011449
19:00+22с249092 2.6 1013178
22:00+21с1189100 0.1 101487
1 февраля, вт
вт101:00+21сз118980 0.1 101383
04:00+21ссз119199 0.0 101290
07:00+21сз129099 0.1 1014147
10:00+23ссз118193 0.0 1015472
13:00+25ссв327233 0.1 1012813
16:00+24ссв337631 0.0 1011504
19:00+20с259119 0.0 1013161
22:00+20с02937 0.0 101494
2 февраля, ср
ср201:00+19св019434 0.0 101498
04:00+19з0194100 0.0 1014100
07:00+20зюз2389100 0.0 1015128
10:00+26сз226839 0.0 1016626
13:00+25св437470 0.1 1013663
16:00+24ссв337990 0.0 1012559
19:00+21ссв139327 0.1 101395
22:00+20всв019323 0.0 101584